Lexington Weather

Lexington, Massachusetts, USA

27°F
1/23/2020 9:19am 
  • Lexington Conditions: Partly cloudy
  • Temperature: 27.1°F / -2.7°CWarmer 3.6°F than last hour.
  • Dew Point: 19.4°FIncreased 1.4°Fsince last hour.
  • Relative Humidity: 72%Decreased 7.0% since last hour.
  • Wind: Calm, 10-min avg: Calm, gust: 7 mph
  • Barometer: 30.35 inRising 0.02  inHg/hr Rising Slowly
  • Visibility: 10 miles
  • Snow Today: 0.0 in
  •   

Regional Weather Roundup
for Boston / Norton, MA

        
000
ASUS41 KBOX 220600
RWRBOX

REGIONAL WEATHER ROUNDUP
NATIONAL WEATHER SERVICE BOSTON/NORTON MA
100 AM EST WED JAN 22 2020

NOTE:  "FAIR" INDICATES FEW OR NO CLOUDS BELOW 12,000 FEET WITH NO 
SIGNIFICANT WEATHER AND/OR OBSTRUCTIONS TO VISIBILITY.

MAZALL-220700-
EASTERN MASSACHUSETTS
  
CITY           SKY/WX    TMP DP  RH WIND       PRES   REMARKS
BOSTON         MOCLDY    24   5  44 CALM      30.41S                  
6HR MIN TEMP:  22; 6HR MAX TEMP:  26;                                

BEVERLY        FAIR      14   3  61 CALM      30.39F                  
LAWRENCE       FAIR      12   3  67 CALM      30.41S                  
BEDFORD        FAIR      11   4  73 CALM      30.39F                  
BLUE HILL        N/A     16   2  54 W7        30.35F WCI   6          
NORWOOD        FAIR      13   4  67 CALM      30.41F                  
MARSHFIELD     NOT AVBL                                               
PLYMOUTH       FAIR      11   8  88 CALM      30.40F                  
TAUNTON        FAIR      11   6  81 CALM      30.40F                  
NEW BEDFORD    FAIR      10   6  84 CALM      30.40F                  
$$

MAZALL-220700-
CAPE COD AND THE ISLANDS
  
CITY           SKY/WX    TMP DP  RH WIND       PRES   REMARKS
FALMOUTH       NOT AVBL                                               
HYANNIS        NOT AVBL                                               
CHATHAM        FAIR      19  14  81 CALM      30.40F                  
PROVINCETOWN   FAIR      25  13  60 W6        30.40F WCI  18          
NANTUCKET      FAIR      26  11  52 N7        30.39F WCI  18          
MARTHAS VNYRD  FAIR      10   3  73 CALM      30.40F                  
$$
 
MAZALL-220700-
CENTRAL AND WESTERN MASSACHUSETTS
  
CITY           SKY/WX    TMP DP  RH WIND       PRES   REMARKS
WORCESTER      FAIR      14  -1  51 W7        30.33S WCI   4          
6HR MIN TEMP:  14; 6HR MAX TEMP:  17;                                

FITCHBURG      FAIR      15   4  61 CALM      30.38F                  
ORANGE         FAIR       4  -1  80 CALM      30.39F                  
SPRINGFIELD    FAIR       4  -1  82 CALM      30.39F                  
WESTFIELD      NOT AVBL                                               
NORTH ADAMS    CLOUDY    13   5  70 NW6       30.39F WCI   4          
PITTSFIELD     CLOUDY    22  11  62 NW3       30.32F                  
$$
 
RIZALL-220700-
RHODE ISLAND
  
CITY           SKY/WX    TMP DP  RH WIND       PRES   REMARKS
PROVIDENCE     FAIR      16   9  74 W5        30.41F WCI   9          
6HR MIN TEMP:  15; 6HR MAX TEMP:  23;                                

NEWPORT        FAIR      17   9  70 CALM      30.40F                  
BLOCK ISLAND   FAIR      22   8  55 CALM      30.42F                  
SMITHFIELD     FAIR      13   2  61 CALM      30.38F                  
WESTERLY       FAIR      19   7  59 CALM      30.42F                  
$$
 
CTZALL-220700-
CONNECTICUT
  
CITY           SKY/WX    TMP DP  RH WIND       PRES   REMARKS
BRADLEY INTL   FAIR      12   2  64 CALM      30.41F                  
6HR MIN TEMP:   9; 6HR MAX TEMP:  22;                                

HARTFORD       FAIR      14   7  73 CALM      30.43F                  
BRIDGEPORT     FAIR      22   9  57 CALM      30.44F                  
DANBURY        FAIR      12   6  77 CALM      30.42F                  
GROTON         NOT AVBL                                               
NEW HAVEN      FAIR      16  11  80 CALM      30.43F                  
CHESTER        FAIR      14   3  62 CALM      30.39F                  
MERIDEN        FAIR      14   6  70 W8        30.43F WCI   3          
WILLIMANTIC    FAIR       7   3  84 CALM      30.43S                  
OXFORD         FAIR      14   6  70 CALM      30.38F                  
$$

MEZ002-015-021-024-NHZ003-005-008-011-012-014-VTZ005-008-220700-
NORTHERN NEW ENGLAND
  
CITY           SKY/WX    TMP DP  RH WIND       PRES   REMARKS
PORTLAND ME    FAIR      14   3  61 NW3       30.38F                  
6HR MIN TEMP:  13; 6HR MAX TEMP:  19;                                

BANGOR ME      CLOUDY     8   4  83 CALM      30.37S                  
CONCORD NH     FAIR       8   2  76 CALM      30.37F                  
MANCHESTER NH  FAIR      14   4  64 CALM      30.36F                  
NASHUA NH      FAIR      12   5  73 CALM      30.39F                  
PORTSMOUTH NH  MOCLDY    13  -1  51 SW5       30.37S WCI   6          
JAFFREY NH     FAIR      14   3  61 S3        30.32F                  
KEENE NH       FAIR       4   1  88 CALM      30.39F                  
BURLINGTON VT  CLOUDY    21   8  57 S8        30.33F WCI  11          
MT. WASHINGTON NOT AVBL                                               
$$

NYZ052-076-220700-
EASTERN NEW YORK
  
CITY           SKY/WX    TMP DP  RH WIND       PRES   REMARKS
ALBANY         MOCLDY    19   9  65 CALM      30.43F                  
6HR MIN TEMP:  15; 6HR MAX TEMP:  22;                                

NEW YORK CITY  FAIR      28   9  44 N5        30.44F WCI  23          
6HR MIN TEMP:  27; 6HR MAX TEMP:  32;                                

$$
 
ANZALL-220700-
MARINE OBSERVATIONS
  
STATION/POSITION TIME  TEMP    WIND        PRES    VSBY  WAVE
                       AIR SEA DIR/SP/G                  HT/PER
                 (UTC) (F)     (DEG/KT/KT) (MB)    (MI)  (FT/S)
BOSTON BUOY      0450   27 42  300/  6/ 10 1029.2          2/10
BUZZARDS BAY     0500   26      10/ 10/ 11 1030.6F
NANTUCKET SOUND  NOT AVBL
MASS BAY-STELLWA 0504   26 41  310/  6/ 10 1027.6F  1 7/8  2/11
ISLE OF SHOALS   0500   23     260/ 10/ 12 1028.8F
S OF BLOCK IS    0530      45                N/A           2/ 9
$$

......................KEY.........................
  SKY/WX - SKY CONDITION/PRESENT WEATHER
  TMP    - TEMPERATURE IN FAHRENHEIT
  DWPT   - DEWPOINT IN FAHRENHEIT
  RH     - RELATIVE HUMIDITY IN PERCENT
  WIND   - DIRECTION AND SPEED IN MPH
  PRES   - MEAN SEA LEVEL PRESSURE IN INCHES OF HG
  WCI    - WIND CHILL INDEX
  VSB    - VISIBILITY IN MILES
  HX     - HEAT INDEX
  TC     - TEMPERATURE IN CELSIUS
  VRB    - VARIABLE WIND DIRECTION
  N/A    - NOT AVAILABLE
  
      

Other recent Regional Weather Roundups

Thu Jan 23, 9:10am

Thu Jan 23, 9:00am

Thu Jan 23, 8:10am

Thu Jan 23, 8:00am

Thu Jan 23, 7:10am

Thu Jan 23, 7:01am

Thu Jan 23, 6:10am

Thu Jan 23, 6:00am

Thu Jan 23, 5:10am

Thu Jan 23, 5:00am

Thu Jan 23, 4:10am

Thu Jan 23, 4:01am

Thu Jan 23, 3:10am

Thu Jan 23, 3:00am

Thu Jan 23, 2:10am

Thu Jan 23, 2:00am

Thu Jan 23, 1:10am

Thu Jan 23, 1:00am

Thu Jan 23, 12:10am

Thu Jan 23, 12:00am

Wed Jan 22, 11:10pm

Wed Jan 22, 11:01pm

Wed Jan 22, 10:10pm

Wed Jan 22, 10:00pm

Wed Jan 22, 9:10pm

Wed Jan 22, 9:00pm

Wed Jan 22, 8:10pm

Wed Jan 22, 8:01pm

Wed Jan 22, 7:10pm

Wed Jan 22, 7:00pm

Wed Jan 22, 6:10pm

Wed Jan 22, 6:01pm

Wed Jan 22, 5:10pm

Wed Jan 22, 5:00pm

Wed Jan 22, 4:10pm

Wed Jan 22, 4:00pm

Wed Jan 22, 3:10pm

Wed Jan 22, 3:00pm

Wed Jan 22, 2:10pm

Wed Jan 22, 2:00pm

Wed Jan 22, 1:10pm

Wed Jan 22, 1:00pm

Wed Jan 22, 12:10pm

Wed Jan 22, 12:00pm

Wed Jan 22, 11:10am

Wed Jan 22, 11:00am

Wed Jan 22, 10:10am

Wed Jan 22, 10:01am

Wed Jan 22, 9:10am

Wed Jan 22, 9:00am

Wed Jan 22, 8:10am

Wed Jan 22, 8:00am

Wed Jan 22, 7:10am

Wed Jan 22, 7:00am

Wed Jan 22, 6:10am

Wed Jan 22, 6:00am

Wed Jan 22, 5:10am

Wed Jan 22, 5:00am

Wed Jan 22, 4:10am

Wed Jan 22, 4:00am

Wed Jan 22, 3:10am

Wed Jan 22, 3:01am

Wed Jan 22, 2:10am

Wed Jan 22, 2:00am

Wed Jan 22, 1:10am

Wed Jan 22, 12:10am

Wed Jan 22, 12:00am

Tue Jan 21, 11:10pm

Tue Jan 21, 11:00pm

Tue Jan 21, 10:10pm

Tue Jan 21, 10:00pm

Tue Jan 21, 9:10pm

Tue Jan 21, 9:01pm

Tue Jan 21, 8:10pm

Tue Jan 21, 8:00pm

Tue Jan 21, 7:10pm

Tue Jan 21, 7:00pm

Tue Jan 21, 6:10pm

Tue Jan 21, 6:01pm

Tue Jan 21, 5:10pm

Tue Jan 21, 5:00pm

Tue Jan 21, 4:10pm

Tue Jan 21, 4:00pm

Tue Jan 21, 3:10pm

Tue Jan 21, 3:01pm

Tue Jan 21, 2:10pm

Tue Jan 21, 2:00pm

Tue Jan 21, 1:10pm

Tue Jan 21, 1:00pm

Tue Jan 21, 12:10pm

Tue Jan 21, 12:00pm

Tue Jan 21, 11:10am

Tue Jan 21, 11:00am

Tue Jan 21, 10:10am

Tue Jan 21, 10:00am

Tue Jan 21, 9:10am

Tue Jan 21, 9:00am

Tue Jan 21, 8:10am

Tue Jan 21, 8:00am

Tue Jan 21, 7:10am

Tue Jan 21, 7:00am

Tue Jan 21, 6:10am

Tue Jan 21, 6:00am

Tue Jan 21, 5:10am

Tue Jan 21, 5:00am

Tue Jan 21, 4:10am

Tue Jan 21, 4:00am

Tue Jan 21, 3:10am

Tue Jan 21, 3:00am

Tue Jan 21, 2:10am

Tue Jan 21, 2:01am

Tue Jan 21, 1:10am

Tue Jan 21, 1:00am

Tue Jan 21, 12:10am

Tue Jan 21, 12:00am

Mon Jan 20, 11:10pm

Mon Jan 20, 11:00pm

Mon Jan 20, 10:10pm

Mon Jan 20, 10:00pm

Mon Jan 20, 9:10pm

Mon Jan 20, 9:00pm

Mon Jan 20, 8:10pm

Mon Jan 20, 8:00pm

Mon Jan 20, 7:10pm

Mon Jan 20, 7:00pm

Mon Jan 20, 6:10pm

Mon Jan 20, 6:00pm

Mon Jan 20, 5:10pm

Mon Jan 20, 5:00pm

Mon Jan 20, 4:10pm

Mon Jan 20, 4:01pm

Mon Jan 20, 3:10pm

Mon Jan 20, 3:00pm

Mon Jan 20, 2:10pm

Mon Jan 20, 2:00pm

Mon Jan 20, 1:10pm

Mon Jan 20, 1:00pm

Mon Jan 20, 12:10pm

Mon Jan 20, 12:00pm

Mon Jan 20, 11:10am

Mon Jan 20, 11:00am

Mon Jan 20, 10:10am

Mon Jan 20, 10:00am

Meta data:

ID: 5f895502-0de7-4d29-86d1-84490cf0b4a4
Link: https://api.weather.gov/products/5f895502-0de7-4d29-86d1-84490cf0b4a4